This is the latest recevied weather packets stored in our database for station/object WE8L. If no packets are shown the sender has not sent any weather packets the latest 10 day(s).
| Time | Temp. | Humidity | Pressure | Rain* | Wind** | Luminosity | Snow |
|---|---|---|---|---|---|---|---|
| 1777919634 | 20° C | 60% | 1011.3 hPa | 0 mm | - | 61 W/m² | - |
| 1777919332 | 20.56° C | 59% | 1011.3 hPa | 0 mm | - | 60 W/m² | - |
| 1777919029 | 20.56° C | 58% | 1011.2 hPa | 0 mm | - | 76 W/m² | - |
| 1777918725 | 20.56° C | 58% | 1010.9 hPa | 0 mm | - | 65 W/m² | - |
| 1777918423 | 20.56° C | 57% | 1011.3 hPa | 0 mm | - | 79 W/m² | - |
| 1777918122 | 21.11° C | 56% | 1010.7 hPa | 0 mm | - | 127 W/m² | - |
| 1777917820 | 21.11° C | 56% | 1010.8 hPa | 0 mm | - | 166 W/m² | - |
| 1777917518 | 21.67° C | 56% | 1010.7 hPa | 0 mm | - | 109 W/m² | - |
| 1777917214 | 22.22° C | 55% | 1010.7 hPa | 0 mm | - | 167 W/m² | - |
| 1777916913 | 21.67° C | 58% | 1010.3 hPa | 0 mm | - | 192 W/m² | - |
| 1777916610 | 21.67° C | 55% | 1010.4 hPa | 0 mm | - | 221 W/m² | - |
| 1777916307 | 21.67° C | 56% | 1010.5 hPa | 0 mm | - | 242 W/m² | - |
| 1777916003 | 21.67° C | 58% | 1010.5 hPa | 0 mm | - | 264 W/m² | - |
| 1777915700 | 21.11° C | 57% | 1010.4 hPa | 0 mm | - | 184 W/m² | - |
| 1777915397 | 21.11° C | 59% | 1010.6 hPa | 0 mm | - | 201 W/m² | - |
| 1777915093 | 21.11° C | 59% | 1010.5 hPa | 0 mm | - | 146 W/m² | - |
| 1777914790 | 21.11° C | 59% | 1010.9 hPa | 0 mm | - | 128 W/m² | - |
| 1777914487 | 20.56° C | 58% | 1010.6 hPa | 0 mm | - | 196 W/m² | - |
| 1777914184 | 20.56° C | 61% | 1010.5 hPa | 0 mm | - | 119 W/m² | - |
| 1777913880 | 20° C | 61% | 1010.8 hPa | 0 mm | - | 134 W/m² | - |
| 1777913577 | 20° C | 60% | 1010.7 hPa | 0 mm | - | 107 W/m² | - |
| 1777913273 | 20° C | 61% | 1010.8 hPa | 0 mm | - | 114 W/m² | - |
| 1777912970 | 20° C | 60% | 1011 hPa | 0 mm | - | 124 W/m² | - |
| 1777912666 | 19.44° C | 61% | 1011 hPa | 0 mm | - | 115 W/m² | - |
| 1777912362 | 18.89° C | 62% | 1010.8 hPa | 0 mm | - | 115 W/m² | - |
* Rain latest hour (hover to see other rain measurements)
** Current wind speed in m/s (hover to see current wind gust speed)